• In Deutschland
  • Länderverzeichnis
  • Für 7 Tage
  • Wassertemperatur
  • Satellitenkarten
  • Wetterkarte
  • Widgets
  • user-avatar
    Anmelden

    Stündliche Wetter Deggendorf

    Heute, 17 Oktober, Dienstag

    Zeit Temperatur Niederschläge Wind Luftdruck Luftfeuchtigkeit
    00:00 +13°C° 0 mm 1 m/S 739 mmHg 82%
    01:00 +13°C° 0 mm 1 m/S 739 mmHg 82%
    02:00 +13°C° 0 mm 1 m/S 739 mmHg 82%
    03:00 +12°C° 0 mm 1 m/S 739 mmHg 82%
    04:00 +12°C° 0 mm 1 m/S 739 mmHg 81%
    05:00 +12°C° 0 mm 1 m/S 739 mmHg 81%
    06:00 +12°C° 0 mm 1 m/S 738 mmHg 80%
    07:00 +12°C° 0 mm 1 m/S 738 mmHg 80%
    08:00 +14°C° 0 mm 1 m/S 738 mmHg 73%
    09:00 +18°C° 0 mm 1 m/S 738 mmHg 67%
    10:00 +20°C° 0 mm 1 m/S 738 mmHg 60%
    11:00 +21°C° 0 mm 1 m/S 738 mmHg 57%
    12:00 +23°C° 0 mm 1 m/S 738 mmHg 54%
    13:00 +24°C° 0 mm 1 m/S 737 mmHg 51%
    14:00 +23°C° 0 mm 1 m/S 737 mmHg 56%
    15:00 +23°C° 0 mm 1 m/S 736 mmHg 61%
    16:00 +20°C° 0 mm 0 m/S 736 mmHg 66%
    17:00 +18°C° 0 mm 0 m/S 736 mmHg 71%
    18:00 +16°C° 0 mm 0 m/S 735 mmHg 76%
    19:00 +14°C° 0 mm 0 m/S 735 mmHg 82%
    20:00 +13°C° 0 mm 0 m/S 735 mmHg 83%
    21:00 +13°C° 0 mm 0 m/S 735 mmHg 83%
    22:00 +13°C° 0 mm 0 m/S 735 mmHg 84%
    23:00 +12°C° 0 mm 0 m/S 734 mmHg 85%

    Morgen, 18 Oktober, Mittwoch

    Zeit Temperatur Niederschläge Wind Luftdruck Luftfeuchtigkeit
    00:00 +12°C° 0 mm 0 m/S 734 mmHg 85%
    01:00 +12°C° 0 mm 0 m/S 734 mmHg 86%
    02:00 +11°C° 0 mm 0 m/S 734 mmHg 86%
    03:00 +11°C° 0 mm 0 m/S 733 mmHg 87%
    04:00 +11°C° 0 mm 0 m/S 733 mmHg 88%
    05:00 +11°C° 0 mm 0 m/S 733 mmHg 89%
    06:00 +11°C° 0 mm 0 m/S 733 mmHg 90%
    07:00 +10°C° 0 mm 0 m/S 733 mmHg 90%
    08:00 +13°C° 0 mm 1 m/S 733 mmHg 85%
    09:00 +15°C° 0 mm 1 m/S 733 mmHg 79%
    10:00 +18°C° 0 mm 1 m/S 733 mmHg 73%
    11:00 +19°C° 0 mm 1 m/S 732 mmHg 69%
    12:00 +21°C° 0 mm 1 m/S 732 mmHg 65%
    13:00 +22°C° 0 mm 1 m/S 732 mmHg 61%
    14:00 +21°C° 0 mm 1 m/S 732 mmHg 65%
    15:00 +21°C° 0 mm 1 m/S 731 mmHg 68%
    16:00 +20°C° 0 mm 1 m/S 731 mmHg 72%
    17:00 +16°C° 0 mm 0 m/S 731 mmHg 77%
    18:00 +14°C° 0 mm 0 m/S 731 mmHg 83%
    19:00 +13°C° 0 mm 0 m/S 731 mmHg 88%
    20:00 +12°C° 0 mm 0 m/S 732 mmHg 89%
    21:00 +12°C° 0 mm 0 m/S 732 mmHg 90%
    22:00 +11°C° 0 mm 0 m/S 732 mmHg 90%
    23:00 +11°C° 0 mm 0 m/S 732 mmHg 91%

    übermorgen, 19 Oktober, Donnerstag

    Zeit Temperatur Niederschläge Wind Luftdruck Luftfeuchtigkeit
    00:00 +11°C° 0 mm 0 m/S 732 mmHg 91%
    01:00 +10°C° 0 mm 0 m/S 732 mmHg 92%
    02:00 +10°C° 0 mm 0 m/S 732 mmHg 92%
    03:00 +10°C° 0 mm 0 m/S 732 mmHg 92%
    04:00 +10°C° 0 mm 0 m/S 731 mmHg 93%
    05:00 +9°C° 0 mm 0 m/S 731 mmHg 93%
    06:00 +9°C° 0 mm 0 m/S 731 mmHg 93%
    07:00 +9°C° 0 mm 0 m/S 732 mmHg 92%
    08:00 +11°C° 0 mm 0 m/S 732 mmHg 85%
    09:00 +15°C° 0 mm 1 m/S 732 mmHg 78%
    10:00 +18°C° 0 mm 1 m/S 732 mmHg 70%
    11:00 +19°C° 0 mm 1 m/S 732 mmHg 65%
    12:00 +20°C° 0 mm 1 m/S 731 mmHg 60%
    13:00 +22°C° 0 mm 1 m/S 731 mmHg 54%
    14:00 +21°C° 0 mm 1 m/S 731 mmHg 58%
    15:00 +20°C° 0 mm 1 m/S 731 mmHg 62%
    16:00 +18°C° 0 mm 0 m/S 731 mmHg 66%
    17:00 +16°C° 0 mm 0 m/S 731 mmHg 71%
    18:00 +14°C° 0 mm 0 m/S 731 mmHg 76%
    19:00 +12°C° 0 mm 0 m/S 731 mmHg 81%
    20:00 +12°C° 0 mm 0 m/S 731 mmHg 82%
    21:00 +11°C° 0 mm 0 m/S 732 mmHg 83%
    22:00 +11°C° 0 mm 0 m/S 732 mmHg 84%
    23:00 +11°C° 0 mm 0 m/S 732 mmHg 85%

    20 Oktober, Freitag

    Zeit Temperatur Niederschläge Wind Luftdruck Luftfeuchtigkeit
    00:00 +11°C° 0 mm 1 m/S 732 mmHg 85%
    01:00 +11°C° 0 mm 1 m/S 732 mmHg 86%
    02:00 +11°C° 0 mm 1 m/S 732 mmHg 87%
    03:00 +11°C° 0 mm 1 m/S 732 mmHg 87%
    04:00 +11°C° 0 mm 1 m/S 732 mmHg 88%
    05:00 +10°C° 0 mm 1 m/S 732 mmHg 88%
    06:00 +10°C° 0 mm 1 m/S 732 mmHg 88%
    07:00 +10°C° 0 mm 1 m/S 732 mmHg 89%
    08:00 +12°C° 0 mm 1 m/S 732 mmHg 82%
    09:00 +14°C° 0 mm 1 m/S 733 mmHg 76%
    10:00 +16°C° 0 mm 1 m/S 733 mmHg 70%
    11:00 +18°C° 0 mm 1 m/S 733 mmHg 66%
    12:00 +19°C° 0 mm 1 m/S 733 mmHg 63%
    13:00 +19°C° 0 mm 2 m/S 732 mmHg 60%
    14:00 +20°C° 0 mm 1 m/S 732 mmHg 63%
    15:00 +19°C° 0 mm 1 m/S 732 mmHg 67%
    16:00 +19°C° 0 mm 1 m/S 732 mmHg 71%
    17:00 +16°C° 0 mm 1 m/S 732 mmHg 76%
    18:00 +15°C° 0 mm 1 m/S 733 mmHg 81%
    19:00 +13°C° 0 mm 1 m/S 733 mmHg 86%
    20:00 +13°C° 0 mm 1 m/S 733 mmHg 87%
    21:00 +13°C° 0 mm 1 m/S 733 mmHg 88%
    22:00 +12°C° 0 mm 1 m/S 734 mmHg 88%
    23:00 +12°C° 0 mm 1 m/S 734 mmHg 88%

    21 Oktober, Samstag

    Zeit Temperatur Niederschläge Wind Luftdruck Luftfeuchtigkeit
    00:00 +12°C° 0 mm 1 m/S 734 mmHg 89%
    01:00 +11°C° 0 mm 1 m/S 734 mmHg 89%
    02:00 +11°C° 0 mm 1 m/S 733 mmHg 88%
    03:00 +11°C° 0 mm 1 m/S 733 mmHg 87%
    04:00 +11°C° 0 mm 1 m/S 733 mmHg 87%
    05:00 +11°C° 0 mm 1 m/S 733 mmHg 85%
    06:00 +11°C° 0 mm 1 m/S 733 mmHg 83%
    07:00 +11°C° 0 mm 1 m/S 733 mmHg 82%
    08:00 +13°C° 0 mm 2 m/S 733 mmHg 75%
    09:00 +15°C° 0 mm 2 m/S 733 mmHg 68%
    10:00 +17°C° 0 mm 2 m/S 733 mmHg 61%
    11:00 +18°C° 0 mm 2 m/S 733 mmHg 59%
    12:00 +19°C° 0 mm 2 m/S 732 mmHg 57%
    13:00 +21°C° 0 mm 1 m/S 732 mmHg 55%
    14:00 +20°C° 0 mm 1 m/S 732 mmHg 59%
    15:00 +20°C° 0 mm 1 m/S 732 mmHg 64%
    16:00 +19°C° 0 mm 1 m/S 732 mmHg 68%
    17:00 +18°C° 0 mm 1 m/S 732 mmHg 72%
    18:00 +16°C° 0 mm 1 m/S 732 mmHg 76%
    19:00 +15°C° 0 mm 1 m/S 732 mmHg 79%
    20:00 +14°C° 0 mm 1 m/S 732 mmHg 81%
    21:00 +14°C° 0 mm 1 m/S 732 mmHg 84%
    22:00 +14°C° 0 mm 1 m/S 732 mmHg 86%
    23:00 +14°C° 0,2 mm 1 m/S 732 mmHg 88%

    22 Oktober, Sonntag

    Zeit Temperatur Niederschläge Wind Luftdruck Luftfeuchtigkeit
    00:00 +14°C° 0,2 mm 1 m/S 732 mmHg 90%
    01:00 +14°C° 0,2 mm 1 m/S 731 mmHg 92%
    02:00 +14°C° 0,3 mm 1 m/S 731 mmHg 93%
    03:00 +13°C° 0,3 mm 1 m/S 731 mmHg 94%
    04:00 +13°C° 0,3 mm 1 m/S 731 mmHg 95%
    05:00 +13°C° 2,5 mm 2 m/S 731 mmHg 95%
    06:00 +12°C° 2,5 mm 3 m/S 731 mmHg 95%
    07:00 +12°C° 2,5 mm 3 m/S 732 mmHg 95%
    08:00 +11°C° 1,6 mm 3 m/S 732 mmHg 94%
    09:00 +11°C° 1,6 mm 3 m/S 732 mmHg 93%
    10:00 +10°C° 1,6 mm 3 m/S 732 mmHg 93%
    11:00 +10°C° 0,5 mm 3 m/S 732 mmHg 91%
    12:00 +10°C° 0,5 mm 3 m/S 732 mmHg 90%
    13:00 +10°C° 0,5 mm 3 m/S 732 mmHg 88%
    14:00 +10°C° 0,5 mm 3 m/S 732 mmHg 88%
    15:00 +10°C° 0,5 mm 3 m/S 733 mmHg 88%
    16:00 +10°C° 0,5 mm 3 m/S 733 mmHg 88%
    17:00 +9°C° 0,1 mm 3 m/S 733 mmHg 89%
    18:00 +9°C° 0,1 mm 3 m/S 733 mmHg 90%
    19:00 +8°C° 0,1 mm 3 m/S 734 mmHg 91%
    20:00 +8°C° 0,1 mm 3 m/S 734 mmHg 91%
    21:00 +6°C° 0,1 mm 4 m/S 734 mmHg 91%
    22:00 +6°C° 0,1 mm 4 m/S 734 mmHg 91%
    23:00 +6°C° 0,1 mm 4 m/S 734 mmHg 91%
    Mehr zeigen